Flag for Germany Weather past 2 weeks in Soest, North Rhine-Westphalia, Germany

Now
59 °F

Scattered showers. Scattered clouds.


Feels Like: 57 °F
Forecast: 46 / 67 °F
Wind: 9 mph from Northwest

Location: Dortmund / Wickede

Current Time: Jul 30, 2015 at 5:01:34 PM

Latest Report: Jul 30, 2015 at 4:20 PM


Visibility: N/A

Pressure: 30.01 "Hg

Humidity: 68%

Dew point: 48 °F

Location of SoestLocation

Historic Weather in Soest — Graph

°F

Soest temperature yesterday

Maximum temperature yesterday: 61 °F (at 3:20 PM)
Minimum temperature yesterday: 50 °F (at 1:50 PM)
Average temperature yesterday: 56 °F

Past Weeks' High & Low Weather Summary

 TemperatureHumidityPressure
High86 °F (Jul 17, 1:50 PM)94% (Jul 16, 5:50 AM)30.12 "Hg (Jul 16, 5:50 AM)
Low50 °F (Jul 26, 5:20 AM)27% (Jul 17, 3:20 PM)29.50 "Hg (Jul 25, 7:50 AM)
Average66 °F66%29.87 "Hg
* Reported Jul 15 3:20 PM — Jul 30 3:50 PM, Soest, Weather by CustomWeather, © 2015

Note: Actual official high and low records may vary slightly from our data, if they occured in-between our weather recording intervals... More about our weather records

Advertising

Soest weather history for previous 24 hours

 ConditionsComfort  
Time TempWeatherWind HumidityBarometerVisibility
3:50 PM
Thu, Jul 30
55 °FSprinkles. Scattered clouds.10 mph72%29.98 "HgN/A
3:20 PM57 °FScattered showers. Partly sunny.14 mph67%29.98 "HgN/A
2:50 PM59 °FScattered showers. Partly sunny.12 mph68%29.98 "HgN/A
2:20 PM57 °FScattered showers. Partly sunny.14 mph67%29.98 "HgN/A
1:50 PM59 °FScattered showers. Partly sunny.20 mph59%29.98 "HgN/A
1:20 PM63 °FPartly sunny.13 mph52%29.95 "HgN/A
12:50 PM63 °FScattered clouds.12 mph52%29.95 "HgN/A
12:20 PM63 °FPartly sunny.15 mph56%29.95 "HgN/A
11:50 AM61 °FPartly sunny.10 mph55%29.95 "HgN/A
11:20 AM61 °FScattered clouds.13 mph59%29.95 "HgN/A
10:20 AM59 °FScattered clouds.12 mph63%29.95 "HgN/A
9:50 AM59 °FScattered clouds.12 mph68%29.95 "HgN/A
9:20 AM57 °FScattered clouds.10 mph72%29.95 "HgN/A
8:50 AM55 °FScattered clouds.10 mph77%29.95 "HgN/A
8:20 AM55 °FSunny.10 mph77%29.92 "Hg10 mi
7:50 AM54 °FSunny.9 mph82%29.92 "Hg10 mi
7:20 AM54 °FSunny.8 mph82%29.92 "Hg10 mi
6:50 AM52 °FScattered clouds.10 mph82%29.92 "HgN/A
6:20 AM50 °FPassing clouds.9 mph88%29.92 "HgN/A
5:50 AM50 °FPassing clouds.9 mph88%29.92 "HgN/A
5:20 AM50 °FClear.10 mph88%29.89 "Hg10 mi
10:50 PM
Wed, Jul 29
52 °FClear.12 mph82%29.86 "Hg10 mi
10:20 PM54 °FSunny.12 mph82%29.86 "Hg10 mi
9:50 PM54 °FPassing clouds.12 mph82%29.86 "HgN/A
9:20 PM54 °FScattered clouds.14 mph82%29.86 "HgN/A
8:50 PM57 °FScattered showers. Scattered clouds.13 mph63%29.83 "HgN/A
8:20 PM57 °FScattered showers. Scattered clouds.15 mph63%29.83 "HgN/A
7:50 PM59 °FScattered clouds.14 mph68%29.83 "HgN/A
7:20 PM57 °FScattered clouds.14 mph72%29.80 "HgN/A
6:50 PM57 °FSprinkles. Scattered clouds.12 mph72%29.80 "HgN/A
6:20 PM57 °FScattered showers. Scattered clouds.10 mph72%29.80 "HgN/A
5:52 PM57 °FThunderstorms. Partly sunny.15 mph63%29.80 "Hg5 mi
5:20 PM61 °FPassing clouds.16 mph52%29.77 "HgN/A
Weather by CustomWeather, © 2015

See weather overviewHow to use our weather pages